TimeEST,TemperatureF,Dew PointF,Humidity,Sea Level PressureIn,VisibilityMPH,Wind Direction,Wind SpeedMPH,Gust SpeedMPH,PrecipitationIn,Events,Conditions,WindDirDegrees,DateUTC
12:54 AM,48.0,46.9,96,30.04,8.0,SSE,3.5,-,N/A,Fog,Shallow Fog,160,2012-12-09 05:54:00
1:54 AM,48.9,48.0,97,30.05,7.0,Calm,Calm,-,N/A,Fog,Shallow Fog,0,2012-12-09 06:54:00
2:54 AM,48.9,48.0,97,30.06,7.0,Calm,Calm,-,N/A,Fog,Shallow Fog,0,2012-12-09 07:54:00
3:15 AM,48.2,48.2,100,30.05,7.0,SE,3.5,-,N/A,Fog,Shallow Fog,140,2012-12-09 08:15:00
3:41 AM,46.4,44.6,93,30.05,7.0,ESE,3.5,-,N/A,Fog,Shallow Fog,120,2012-12-09 08:41:00
3:54 AM,45.0,45.0,100,30.06,4.0,Calm,Calm,-,N/A,Fog,Shallow Fog,0,2012-12-09 08:54:00
4:01 AM,46.4,44.6,93,30.05,0.5,Calm,Calm,-,N/A,Fog,Fog,0,2012-12-09 09:01:00
4:52 AM,46.4,44.6,93,30.06,3.0,Calm,Calm,-,N/A,,Scattered Clouds,0,2012-12-09 09:52:00
4:54 AM,45.0,44.1,97,30.08,3.0,Calm,Calm,-,N/A,,Scattered Clouds,0,2012-12-09 09:54:00
4:59 AM,44.6,42.8,93,30.07,2.5,Calm,Calm,-,N/A,,Scattered Clouds,0,2012-12-09 09:59:00
5:02 AM,44.6,44.6,100,30.07,1.0,Calm,Calm,-,N/A,,Scattered Clouds,0,2012-12-09 10:02:00
5:42 AM,46.4,44.6,93,30.08,1.0,Calm,Calm,-,N/A,,Scattered Clouds,0,2012-12-09 10:42:00
5:54 AM,46.0,45.0,96,30.09,1.0,Calm,Calm,-,N/A,,Scattered Clouds,0,2012-12-09 10:54:00
6:07 AM,44.6,44.6,100,30.08,1.0,Calm,Calm,-,N/A,,Scattered Clouds,0,2012-12-09 11:07:00
6:18 AM,46.4,44.6,93,30.08,0.5,Calm,Calm,-,N/A,Fog,Fog,0,2012-12-09 11:18:00
6:31 AM,46.4,46.4,100,30.08,3.0,Calm,Calm,-,N/A,,Mostly Cloudy,0,2012-12-09 11:31:00
6:54 AM,46.0,45.0,96,30.11,2.0,South,5.8,-,N/A,,Mostly Cloudy,190,2012-12-09 11:54:00
7:30 AM,48.2,48.2,100,30.10,1.2,South,4.6,-,N/A,,Mostly Cloudy,180,2012-12-09 12:30:00
7:43 AM,48.2,48.2,100,30.10,1.0,Calm,Calm,-,N/A,,Mostly Cloudy,0,2012-12-09 12:43:00
7:54 AM,48.0,46.9,96,30.13,1.0,Calm,Calm,-,N/A,,Mostly Cloudy,0,2012-12-09 12:54:00
8:14 AM,50.0,48.2,94,30.11,1.0,Calm,Calm,-,N/A,,Overcast,0,2012-12-09 13:14:00
8:38 AM,51.8,51.8,100,30.13,1.8,Calm,Calm,-,N/A,,Overcast,0,2012-12-09 13:38:00
8:54 AM,51.1,51.1,100,30.14,2.0,Calm,Calm,-,N/A,,Overcast,0,2012-12-09 13:54:00
9:28 AM,51.8,51.8,100,30.14,2.0,Calm,Calm,-,N/A,,Overcast,0,2012-12-09 14:28:00
9:54 AM,53.1,51.1,93,30.15,2.0,NNE,4.6,-,N/A,,Overcast,20,2012-12-09 14:54:00
10:54 AM,53.1,52.0,96,30.15,2.0,Calm,Calm,-,N/A,,Overcast,0,2012-12-09 15:54:00
11:54 AM,54.0,52.0,93,30.12,2.0,ENE,3.5,-,N/A,,Overcast,60,2012-12-09 16:54:00
12:54 PM,55.0,52.0,89,30.12,2.0,North,3.5,-,N/A,,Overcast,350,2012-12-09 17:54:00
1:54 PM,55.0,52.0,89,30.10,2.0,NNE,3.5,-,N/A,,Overcast,20,2012-12-09 18:54:00
3:12 PM,53.6,51.8,94,30.09,0.8,NNE,5.8,-,N/A,,Overcast,20,2012-12-09 20:12:00
3:54 PM,54.0,52.0,93,30.10,0.8,NE,5.8,-,N/A,,Overcast,40,2012-12-09 20:54:00
4:54 PM,53.1,52.0,96,30.10,0.5,ENE,3.5,-,0.00,Fog,Fog,60,2012-12-09 21:54:00
5:54 PM,53.1,52.0,96,30.09,0.2,NE,3.5,-,N/A,Fog,Fog,50,2012-12-09 22:54:00
6:54 PM,53.1,52.0,96,30.09,0.5,ENE,3.5,-,N/A,Fog,Fog,60,2012-12-09 23:54:00
7:19 PM,53.6,51.8,94,30.07,1.0,Calm,Calm,-,N/A,,Overcast,0,2012-12-10 00:19:00
7:54 PM,53.1,52.0,96,30.08,1.0,North,3.5,-,N/A,,Overcast,10,2012-12-10 00:54:00
8:13 PM,53.6,51.8,94,30.05,0.5,Calm,Calm,-,N/A,Fog,Fog,0,2012-12-10 01:13:00
8:54 PM,52.0,52.0,100,30.05,0.2,North,4.6,-,0.04,Fog,Fog,10,2012-12-10 01:54:00
9:30 PM,51.8,51.8,100,30.02,1.0,Calm,Calm,-,0.03,Rain,Light Rain,0,2012-12-10 02:30:00
9:54 PM,52.0,52.0,100,30.04,1.8,Calm,Calm,-,0.03,,Overcast,0,2012-12-10 02:54:00
10:54 PM,52.0,51.1,97,30.02,1.5,Calm,Calm,-,N/A,,Overcast,0,2012-12-10 03:54:00
11:06 PM,51.8,51.8,100,30.01,1.0,Calm,Calm,-,N/A,,Mostly Cloudy,0,2012-12-10 04:06:00
11:26 PM,51.8,51.8,100,30.00,1.0,Calm,Calm,-,N/A,,Overcast,0,2012-12-10 04:26:00
11:54 PM,53.1,52.0,96,30.00,1.0,Calm,Calm,-,N/A,,Overcast,0,2012-12-10 04:54:00